Charter Quote
Worldwide +1-877-727-2538 Call
Select Language Lang
SAFETY RELIABILITY EXPERIENCE

Private Jet Charter Services - Zhoushuizi (ZYTL)

Paramount Business Jets offers private jet charter flights and luxury airliner charters to and from Zhoushuizi.

AIRPORT INFORMATION
ICAOZYTL
LOCATIONDalian, China
FACILITY TYPEAIRPORT

At Paramount Business Jets you can hire chartered private jets to and from Zhoushuizi with as little as 4 hours of notice. All flights booked via Paramount Business Jets are operated by certified direct air carriers that meet and exceed the FAA part 135 and 121 protocol or a foreign equivalent safety authority. Furthermore, Paramount Business Jets subscribes to ARGUS for their third party safety checks of operators, aircraft, and crews prior each and every flight to and from Zhoushuizi and worldwide.

  • Quote a trip using Zhoushuizi or call us 24/7 - 365 days a year at +1-877-727-2538.
Questions? Call +1-877-727-2538

METAR Weather Data at Zhoushuizi, ZYTL

STATIONZYTL
OBSERVEDThu Nov 14, 16:00 UTC
NOWThu Nov 14, 16:21 UTC
AGE21 min ago
WINDWSW at 11 mph
VISIBILITYgreater than 7 miles
CLOUDSclear skies
TEMP54°F (12°C)
DEWPT41°F (5°C)
HUMIDITY63%
BAROMETER1014 hPa (29.94 in Hg)
METARZYTL 141600Z 24005MPS CAVOK 12/05 Q1014 NOSIG

Call us on +1-877-727-2538 (24 Hours), Check our Pricing, or Get a Quick Quote.

Find Airports Near any Location

Processing
...